カタログに戻る

UFO 1

USA 98

運用中軍事GEO
NORAD 22563·PAYLOAD·🇺🇸 United States

打ち上げ Mar 25, 1993 から Cape Canaveral Space Force Station

Loading…

TLE

最新Source: Space-Track

元期: Sep 14, 2026, 04:09 UTC

1 22563U 93015A   26257.17339184  .00000023  00000-0  00000-0 0  9999
2 22563  26.0198  70.9265 0002068 248.1557 301.0286  0.99252395125588

AllMySatでUFO 1をリアルタイム追跡

Download on the App Store